owner,sensor,date,latitude,longitude,vertical_datum,direction_of_sea_water_velocity,sea_water_speed,upward_sea_water_velocity,qcFlag 
TABS,ioos:station:wmo:42045:1,2006-11-01T00:00:00Z,26.2168,-96.4998,2.0,94.69610784,9.160753244,-99999.0,'11133222,11111222,99999999' 
TABS,ioos:station:wmo:42045:1,2006-11-01T00:30:00Z,26.2168,-96.4998,2.0,79.44861172,13.92546588,-99999.0,'11111222,11111222,99999999' 
TABS,ioos:station:wmo:42045:1,2006-11-01T01:00:00Z,26.2168,-96.4998,2.0,80.37045239,10.70077567,-99999.0,'11111222,11111222,99999999' 
TABS,ioos:station:wmo:42045:1,2006-11-01T01:30:00Z,26.2168,-96.4998,2.0,71.30106092,6.862215386,-99999.0,'11133222,11111222,99999999' 
TABS,ioos:station:wmo:42045:1,2006-11-01T02:00:00Z,26.2168,-96.4998,2.0,41.70157848,7.004891148,-99999.0,'11133222,11111222,99999999' 
TABS,ioos:station:wmo:42045:1,2006-11-01T02:30:00Z,26.2168,-96.4998,2.0,9.797429079,3.937423015,-99999.0,'11133222,11111222,99999999' 
TABS,ioos:station:wmo:42045:1,2006-11-01T03:00:00Z,26.2168,-96.4998,2.0,41.35740419,14.46835167,-99999.0,'11111222,11111222,99999999' 
TABS,ioos:station:wmo:42045:1,2006-11-01T03:30:00Z,26.2168,-96.4998,2.0,61.56790775,9.745486135,-99999.0,'11133222,11111222,99999999' 
TABS,ioos:station:wmo:42045:1,2006-11-01T04:30:00Z,26.2168,-96.4998,2.0,18.14501412,12.49115687,-99999.0,'11111222,11111222,99999999' 
TABS,ioos:station:wmo:42045:1,2006-11-01T05:00:00Z,26.2168,-96.4998,2.0,10.9458439,8.637129153,-99999.0,'11133222,11111222,99999999' 
TABS,ioos:station:wmo:42045:1,2006-11-01T05:30:00Z,26.2168,-96.4998,2.0,347.8566814,9.840188006,-99999.0,'11133222,11111222,99999999' 
TABS,ioos:station:wmo:42045:1,2006-11-01T06:00:00Z,26.2168,-96.4998,2.0,29.47103897,17.37870536,-99999.0,'11111222,11111222,99999999' 
TABS,ioos:station:wmo:42045:1,2006-11-01T06:30:00Z,26.2168,-96.4998,2.0,9.666237063,17.56943084,-99999.0,'11111222,11111222,99999999' 
TABS,ioos:station:wmo:42045:1,2006-11-01T07:30:00Z,26.2168,-96.4998,2.0,17.82125775,17.70977131,-99999.0,'11111222,11111222,99999999' 
TABS,ioos:station:wmo:42045:1,2006-11-01T08:00:00Z,26.2168,-96.4998,2.0,39.4533545,21.65400656,-99999.0,'11111222,11111222,99999999' 
TABS,ioos:station:wmo:42045:1,2006-11-01T08:30:00Z,26.2168,-96.4998,2.0,29.38015127,21.03547718,-99999.0,'11111222,11111222,99999999' 
TABS,ioos:station:wmo:42045:1,2006-11-01T09:00:00Z,26.2168,-96.4998,2.0,22.48253788,18.59313045,-99999.0,'11111222,11111222,99999999' 
TABS,ioos:station:wmo:42045:1,2006-11-01T09:30:00Z,26.2168,-96.4998,2.0,11.60017989,22.08099862,-99999.0,'11111222,11111222,99999999' 
TABS,ioos:station:wmo:42045:1,2006-11-01T10:00:00Z,26.2168,-96.4998,2.0,15.13601057,21.48533686,-99999.0,'11111222,11111222,99999999' 
TABS,ioos:station:wmo:42045:1,2006-11-01T10:30:00Z,26.2168,-96.4998,2.0,48.3646316,24.69938663,-99999.0,'11111222,11111222,99999999' 
TABS,ioos:station:wmo:42045:1,2006-11-01T11:00:00Z,26.2168,-96.4998,2.0,27.68806374,23.04934272,-99999.0,'11111222,11111222,99999999' 
TABS,ioos:station:wmo:42045:1,2006-11-01T11:30:00Z,26.2168,-96.4998,2.0,21.76841177,19.25289589,-99999.0,'11111222,11111222,99999999' 
TABS,ioos:station:wmo:42045:1,2006-11-01T12:00:00Z,26.2168,-96.4998,2.0,7.291726448,10.24283164,-99999.0,'11111222,11111222,99999999' 
TABS,ioos:station:wmo:42045:1,2006-11-01T12:30:00Z,26.2168,-96.4998,2.0,356.6473284,24.79243836,-99999.0,'11111222,11111222,99999999' 
TABS,ioos:station:wmo:42045:1,2006-11-01T13:00:00Z,26.2168,-96.4998,2.0,1.01828117,24.76390922,-99999.0,'11111222,11111222,99999999' 
TABS,ioos:station:wmo:42045:1,2006-11-01T14:00:00Z,26.2168,-96.4998,2.0,21.32455796,20.07436176,-99999.0,'11111222,11111222,99999999' 
TABS,ioos:station:wmo:42045:1,2006-11-01T14:30:00Z,26.2168,-96.4998,2.0,2.5963965,24.50515252,-99999.0,'11111222,11111222,99999999' 
TABS,ioos:station:wmo:42045:1,2006-11-01T15:00:00Z,26.2168,-96.4998,2.0,21.80787281,16.87784939,-99999.0,'11111222,11111222,99999999' 
TABS,ioos:station:wmo:42045:1,2006-11-01T16:00:00Z,26.2168,-96.4998,2.0,52.15228358,16.64042367,-99999.0,'11111222,11111222,99999999' 
TABS,ioos:station:wmo:42045:1,2006-11-01T16:30:00Z,26.2168,-96.4998,2.0,72.68282973,10.21293787,-99999.0,'11111222,11111222,99999999' 
TABS,ioos:station:wmo:42045:1,2006-11-01T17:00:00Z,26.2168,-96.4998,2.0,57.24664136,13.23414145,-99999.0,'11111222,11111222,99999999' 
TABS,ioos:station:wmo:42045:1,2006-11-01T17:30:00Z,26.2168,-96.4998,2.0,61.65585854,13.39603299,-99999.0,'11111222,11111222,99999999' 
TABS,ioos:station:wmo:42045:1,2006-11-01T18:00:00Z,26.2168,-96.4998,2.0,85.99534363,11.59831884,-99999.0,'11111222,11111222,99999999' 
TABS,ioos:station:wmo:42045:1,2006-11-01T19:00:00Z,26.2168,-96.4998,2.0,171.9966223,11.4919276,-99999.0,'11111222,11111222,99999999' 
TABS,ioos:station:wmo:42045:1,2006-11-01T19:30:00Z,26.2168,-96.4998,2.0,182.3459469,6.595528789,-99999.0,'11133222,11111222,99999999' 
TABS,ioos:station:wmo:42045:1,2006-11-01T20:00:00Z,26.2168,-96.4998,2.0,212.6866496,4.277394066,-99999.0,'11133222,11111222,99999999' 
TABS,ioos:station:wmo:42045:1,2006-11-01T21:00:00Z,26.2168,-96.4998,2.0,251.9893774,8.958978736,-99999.0,'11133222,11111222,99999999' 
TABS,ioos:station:wmo:42045:1,2006-11-01T22:00:00Z,26.2168,-96.4998,2.0,261.8483508,11.49614283,-99999.0,'11111222,11111222,99999999' 
TABS,ioos:station:wmo:42045:1,2006-11-01T22:30:00Z,26.2168,-96.4998,2.0,337.3508169,11.91923236,-99999.0,'11111222,11111222,99999999' 
TABS,ioos:station:wmo:42045:1,2006-11-01T23:00:00Z,26.2168,-96.4998,2.0,322.5896216,20.13089665,-99999.0,'11111222,11111222,99999999' 
TABS,ioos:station:wmo:42045:1,2006-11-01T23:30:00Z,26.2168,-96.4998,2.0,317.2815233,17.23170624,-99999.0,'11111222,11111222,99999999' 
TABS,ioos:station:wmo:42045:1,2006-11-02T00:00:00Z,26.2168,-96.4998,2.0,314.8470606,18.50505066,-99999.0,'11111222,11111222,99999999' 
TABS,ioos:station:wmo:42045:1,2006-11-02T00:30:00Z,26.2168,-96.4998,2.0,328.5018635,16.17302074,-99999.0,'11111222,11111222,99999999' 
TABS,ioos:station:wmo:42045:1,2006-11-02T01:00:00Z,26.2168,-96.4998,2.0,318.124106,17.64732274,-99999.0,'11111222,11111222,99999999' 
TABS,ioos:station:wmo:42045:1,2006-11-02T02:00:00Z,26.2168,-96.4998,2.0,342.823284,18.72519693,-99999.0,'11111222,11111222,99999999' 
TABS,ioos:station:wmo:42045:1,2006-11-02T02:30:00Z,26.2168,-96.4998,2.0,339.7262791,29.95587422,-99999.0,'11111222,11111222,99999999' 
TABS,ioos:station:wmo:42045:1,2006-11-02T03:00:00Z,26.2168,-96.4998,2.0,344.3054979,26.06166917,-99999.0,'11111222,11111222,99999999' 
TABS,ioos:station:wmo:42045:1,2006-11-02T03:30:00Z,26.2168,-96.4998,2.0,354.4901297,25.30693581,-99999.0,'11111222,11111222,99999999' 
TABS,ioos:station:wmo:42045:1,2006-11-02T04:00:00Z,26.2168,-96.4998,2.0,350.6540893,24.32288017,-99999.0,'11111222,11111222,99999999' 
TABS,ioos:station:wmo:42045:1,2006-11-02T04:30:00Z,26.2168,-96.4998,2.0,331.7685051,23.06361854,-99999.0,'11111222,11111222,99999999' 
TABS,ioos:station:wmo:42045:1,2006-11-02T05:00:00Z,26.2168,-96.4998,2.0,336.6150441,27.41167634,-99999.0,'11111222,11111222,99999999' 
TABS,ioos:station:wmo:42045:1,2006-11-02T05:30:00Z,26.2168,-96.4998,2.0,338.5653896,14.80393529,-99999.0,'11111222,11111222,99999999' 
TABS,ioos:station:wmo:42045:1,2006-11-02T06:00:00Z,26.2168,-96.4998,2.0,3.816463147,17.42864596,-99999.0,'11111222,11111222,99999999' 
TABS,ioos:station:wmo:42045:1,2006-11-02T06:30:00Z,26.2168,-96.4998,2.0,357.4058703,18.99947368,-99999.0,'11111222,11111222,99999999' 
TABS,ioos:station:wmo:42045:1,2006-11-02T07:30:00Z,26.2168,-96.4998,2.0,357.9429664,8.635565992,-99999.0,'11133222,11111222,99999999' 
TABS,ioos:station:wmo:42045:1,2006-11-02T08:30:00Z,26.2168,-96.4998,2.0,54.15650514,13.06409584,-99999.0,'11111222,11111222,99999999' 
TABS,ioos:station:wmo:42045:1,2006-11-02T09:00:00Z,26.2168,-96.4998,2.0,52.56246776,7.468366622,-99999.0,'11133222,11111222,99999999' 
TABS,ioos:station:wmo:42045:1,2006-11-02T09:30:00Z,26.2168,-96.4998,2.0,40.89998502,17.90025977,-99999.0,'11111222,11111222,99999999' 
TABS,ioos:station:wmo:42045:1,2006-11-02T10:00:00Z,26.2168,-96.4998,2.0,346.1809973,17.29048871,-99999.0,'11111222,11111222,99999999' 
TABS,ioos:station:wmo:42045:1,2006-11-02T10:30:00Z,26.2168,-96.4998,2.0,32.95699138,27.95917917,-99999.0,'11111222,11111222,99999999' 
TABS,ioos:station:wmo:42045:1,2006-11-02T11:00:00Z,26.2168,-96.4998,2.0,25.18311931,28.55395069,-99999.0,'11111222,11111222,99999999' 
TABS,ioos:station:wmo:42045:1,2006-11-02T11:30:00Z,26.2168,-96.4998,2.0,30.86635707,19.14098482,-99999.0,'11111222,11111222,99999999' 
TABS,ioos:station:wmo:42045:1,2006-11-02T12:00:00Z,26.2168,-96.4998,2.0,54.89789296,23.85935456,-99999.0,'11111222,11111222,99999999' 
TABS,ioos:station:wmo:42045:1,2006-11-02T12:30:00Z,26.2168,-96.4998,2.0,41.09058201,10.16356237,-99999.0,'11111222,11111222,99999999' 
TABS,ioos:station:wmo:42045:1,2006-11-02T13:00:00Z,26.2168,-96.4998,2.0,28.42232956,18.2156334,-99999.0,'11111222,11111222,99999999' 
TABS,ioos:station:wmo:42045:1,2006-11-02T13:30:00Z,26.2168,-96.4998,2.0,16.35289653,19.32162519,-99999.0,'11111222,11111222,99999999' 
TABS,ioos:station:wmo:42045:1,2006-11-02T14:00:00Z,26.2168,-96.4998,2.0,1.464071097,14.87485462,-99999.0,'11111222,11111222,99999999' 
TABS,ioos:station:wmo:42045:1,2006-11-02T14:30:00Z,26.2168,-96.4998,2.0,27.19874778,14.96468175,-99999.0,'11111222,11111222,99999999' 
TABS,ioos:station:wmo:42045:1,2006-11-02T15:30:00Z,26.2168,-96.4998,2.0,43.02698876,15.40284714,-99999.0,'11111222,11111222,99999999' 
TABS,ioos:station:wmo:42045:1,2006-11-02T16:30:00Z,26.2168,-96.4998,2.0,111.277037,4.464302857,-99999.0,'11133222,11111222,99999999' 
TABS,ioos:station:wmo:42045:1,2006-11-02T17:00:00Z,26.2168,-96.4998,2.0,4.785103619,13.42679411,-99999.0,'11111222,11111222,99999999' 
TABS,ioos:station:wmo:42045:1,2006-11-02T17:30:00Z,26.2168,-96.4998,2.0,325.0416342,18.29017496,-99999.0,'11111222,11111222,99999999' 
TABS,ioos:station:wmo:42045:1,2006-11-02T18:00:00Z,26.2168,-96.4998,2.0,342.3651346,16.53716118,-99999.0,'11111222,11111222,99999999' 
TABS,ioos:station:wmo:42045:1,2006-11-02T18:30:00Z,26.2168,-96.4998,2.0,347.3971307,13.3824512,-99999.0,'11111222,11111222,99999999' 
TABS,ioos:station:wmo:42045:1,2006-11-02T19:00:00Z,26.2168,-96.4998,2.0,338.6679972,16.32873847,-99999.0,'11111222,11111222,99999999' 
TABS,ioos:station:wmo:42045:1,2006-11-02T19:30:00Z,26.2168,-96.4998,2.0,323.6895844,15.16472222,-99999.0,'11111222,11111222,99999999' 
TABS,ioos:station:wmo:42045:1,2006-11-02T20:00:00Z,26.2168,-96.4998,2.0,322.120528,20.99326082,-99999.0,'11111222,11111222,99999999' 
TABS,ioos:station:wmo:42045:1,2006-11-02T20:30:00Z,26.2168,-96.4998,2.0,348.0713468,18.33596739,-99999.0,'11111222,11111222,99999999' 
TABS,ioos:station:wmo:42045:1,2006-11-02T21:00:00Z,26.2168,-96.4998,2.0,336.9730063,14.92960817,-99999.0,'11111222,11111222,99999999' 
TABS,ioos:station:wmo:42045:1,2006-11-02T21:30:00Z,26.2168,-96.4998,2.0,326.752309,23.36466777,-99999.0,'11111222,11111222,99999999' 
TABS,ioos:station:wmo:42045:1,2006-11-02T22:00:00Z,26.2168,-96.4998,2.0,344.4979952,14.03042765,-99999.0,'11111222,11111222,99999999' 
TABS,ioos:station:wmo:42045:1,2006-11-02T22:30:00Z,26.2168,-96.4998,2.0,350.4409526,14.5723471,-99999.0,'11111222,11111222,99999999' 
TABS,ioos:station:wmo:42045:1,2006-11-02T23:00:00Z,26.2168,-96.4998,2.0,337.895043,19.61156037,-99999.0,'11111222,11111222,99999999' 
TABS,ioos:station:wmo:42045:1,2006-11-02T23:30:00Z,26.2168,-96.4998,2.0,358.6630483,18.85513458,-99999.0,'11111222,11111222,99999999' 
TABS,ioos:station:wmo:42045:1,2006-11-03T00:00:00Z,26.2168,-96.4998,2.0,347.3392425,21.6258549,-99999.0,'11111222,11111222,99999999' 
TABS,ioos:station:wmo:42045:1,2006-11-03T00:30:00Z,26.2168,-96.4998,2.0,356.3170993,20.08147654,-99999.0,'11111222,11111222,99999999' 
TABS,ioos:station:wmo:42045:1,2006-11-03T01:30:00Z,26.2168,-96.4998,2.0,353.9439047,20.28320734,-99999.0,'11111222,11111222,99999999' 
TABS,ioos:station:wmo:42045:1,2006-11-03T02:00:00Z,26.2168,-96.4998,2.0,3.258574074,20.23270867,-99999.0,'11111222,11111222,99999999' 
TABS,ioos:station:wmo:42045:1,2006-11-03T02:30:00Z,26.2168,-96.4998,2.0,12.4211891,23.05974848,-99999.0,'11111222,11111222,99999999' 
TABS,ioos:station:wmo:42045:1,2006-11-03T03:00:00Z,26.2168,-96.4998,2.0,338.5848431,17.08992978,-99999.0,'11111222,11111222,99999999' 
TABS,ioos:station:wmo:42045:1,2006-11-03T03:30:00Z,26.2168,-96.4998,2.0,354.5059778,17.1286923,-99999.0,'11111222,11111222,99999999' 
TABS,ioos:station:wmo:42045:1,2006-11-03T04:00:00Z,26.2168,-96.4998,2.0,9.867296416,18.84881429,-99999.0,'11111222,11111222,99999999' 
TABS,ioos:station:wmo:42045:1,2006-11-03T04:30:00Z,26.2168,-96.4998,2.0,358.3766512,20.11807645,-99999.0,'11111222,11111222,99999999' 
TABS,ioos:station:wmo:42045:1,2006-11-03T05:00:00Z,26.2168,-96.4998,2.0,18.47536129,13.50609122,-99999.0,'11111222,11111222,99999999' 
TABS,ioos:station:wmo:42045:1,2006-11-03T05:30:00Z,26.2168,-96.4998,2.0,7.851734771,22.10724768,-99999.0,'11111222,11111222,99999999' 
TABS,ioos:station:wmo:42045:1,2006-11-03T06:00:00Z,26.2168,-96.4998,2.0,11.37710042,18.45257977,-99999.0,'11111222,11111222,99999999' 
TABS,ioos:station:wmo:42045:1,2006-11-03T06:30:00Z,26.2168,-96.4998,2.0,344.2599611,16.8830951,-99999.0,'11111222,11111222,99999999' 
TABS,ioos:station:wmo:42045:1,2006-11-03T07:00:00Z,26.2168,-96.4998,2.0,353.2105336,18.86228512,-99999.0,'11111222,11111222,99999999' 
TABS,ioos:station:wmo:42045:1,2006-11-03T07:30:00Z,26.2168,-96.4998,2.0,9.287464089,10.22402074,-99999.0,'11111222,11111222,99999999' 
TABS,ioos:station:wmo:42045:1,2006-11-03T08:00:00Z,26.2168,-96.4998,2.0,55.92595113,4.551417362,-99999.0,'11133222,11111222,99999999' 
TABS,ioos:station:wmo:42045:1,2006-11-03T08:30:00Z,26.2168,-96.4998,2.0,1.977489093,8.405004462,-99999.0,'11133222,11111222,99999999' 
TABS,ioos:station:wmo:42045:1,2006-11-03T09:00:00Z,26.2168,-96.4998,2.0,303.6336251,2.798463864,-99999.0,'11133222,11111222,99999999' 
TABS,ioos:station:wmo:42045:1,2006-11-03T09:30:00Z,26.2168,-96.4998,2.0,84.81824526,4.096742608,-99999.0,'11133222,11111222,99999999' 
TABS,ioos:station:wmo:42045:1,2006-11-03T10:00:00Z,26.2168,-96.4998,2.0,327.6914043,13.8077261,-99999.0,'11111222,11111222,99999999' 
TABS,ioos:station:wmo:42045:1,2006-11-03T10:30:00Z,26.2168,-96.4998,2.0,330.784239,7.928637966,-99999.0,'11133222,11111222,99999999' 
TABS,ioos:station:wmo:42045:1,2006-11-03T11:00:00Z,26.2168,-96.4998,2.0,258.9691618,5.226557184,-99999.0,'11133222,11111222,99999999' 
TABS,ioos:station:wmo:42045:1,2006-11-03T11:30:00Z,26.2168,-96.4998,2.0,349.2121659,7.105582313,-99999.0,'11133222,11111222,99999999' 
TABS,ioos:station:wmo:42045:1,2006-11-03T12:00:00Z,26.2168,-96.4998,2.0,312.5636731,3.326409476,-99999.0,'11133222,11111222,99999999' 
TABS,ioos:station:wmo:42045:1,2006-11-03T12:30:00Z,26.2168,-96.4998,2.0,326.531155,4.315599611,-99999.0,'11133222,11111222,99999999' 
TABS,ioos:station:wmo:42045:1,2006-11-03T13:00:00Z,26.2168,-96.4998,2.0,303.3122261,10.92505835,-99999.0,'11111222,11111222,99999999' 
TABS,ioos:station:wmo:42045:1,2006-11-03T13:30:00Z,26.2168,-96.4998,2.0,317.7015593,12.30318658,-99999.0,'11111222,11111222,99999999' 
TABS,ioos:station:wmo:42045:1,2006-11-03T14:00:00Z,26.2168,-96.4998,2.0,345.0604079,8.766327623,-99999.0,'11133222,11111222,99999999' 
TABS,ioos:station:wmo:42045:1,2006-11-03T14:30:00Z,26.2168,-96.4998,2.0,346.6380351,17.52441155,-99999.0,'11111222,11111222,99999999' 
TABS,ioos:station:wmo:42045:1,2006-11-03T15:00:00Z,26.2168,-96.4998,2.0,346.4924032,5.522771044,-99999.0,'11133222,11111222,99999999' 
TABS,ioos:station:wmo:42045:1,2006-11-03T15:30:00Z,26.2168,-96.4998,2.0,325.7134137,5.857951861,-99999.0,'11133222,11111222,99999999' 
TABS,ioos:station:wmo:42045:1,2006-11-03T16:00:00Z,26.2168,-96.4998,2.0,341.5518139,13.4301936,-99999.0,'11111222,11111222,99999999' 
TABS,ioos:station:wmo:42045:1,2006-11-03T16:30:00Z,26.2168,-96.4998,2.0,350.8640253,8.376264084,-99999.0,'11133222,11111222,99999999' 
TABS,ioos:station:wmo:42045:1,2006-11-03T17:00:00Z,26.2168,-96.4998,2.0,1.983473278,11.84709669,-99999.0,'11111222,11111222,99999999' 
TABS,ioos:station:wmo:42045:1,2006-11-03T17:30:00Z,26.2168,-96.4998,2.0,347.2313958,9.320498914,-99999.0,'11133222,11111222,99999999' 
TABS,ioos:station:wmo:42045:1,2006-11-03T18:00:00Z,26.2168,-96.4998,2.0,359.0269919,8.831273974,-99999.0,'11133222,11144222,99999999' 
TABS,ioos:station:wmo:42045:1,2006-11-03T18:30:00Z,26.2168,-96.4998,2.0,7.648279922,9.918230689,-99999.0,'11133222,11111222,99999999' 
TABS,ioos:station:wmo:42045:1,2006-11-03T19:00:00Z,26.2168,-96.4998,2.0,11.72065435,13.68533522,-99999.0,'11111222,11111222,99999999' 
TABS,ioos:station:wmo:42045:1,2006-11-03T19:30:00Z,26.2168,-96.4998,2.0,347.964384,12.22882251,-99999.0,'11111222,11111222,99999999' 
TABS,ioos:station:wmo:42045:1,2006-11-03T20:00:00Z,26.2168,-96.4998,2.0,336.8132002,13.05448582,-99999.0,'11111222,11111222,99999999' 
TABS,ioos:station:wmo:42045:1,2006-11-03T20:30:00Z,26.2168,-96.4998,2.0,3.720601018,10.17143549,-99999.0,'11111222,11111222,99999999' 
TABS,ioos:station:wmo:42045:1,2006-11-03T21:00:00Z,26.2168,-96.4998,2.0,332.7040496,9.812665285,-99999.0,'11133222,11111222,99999999' 
TABS,ioos:station:wmo:42045:1,2006-11-03T21:30:00Z,26.2168,-96.4998,2.0,348.8972829,17.91532584,-99999.0,'11111222,11111222,99999999' 
TABS,ioos:station:wmo:42045:1,2006-11-03T22:00:00Z,26.2168,-96.4998,2.0,21.99756243,9.771345864,-99999.0,'11133222,11111222,99999999' 
TABS,ioos:station:wmo:42045:1,2006-11-03T22:30:00Z,26.2168,-96.4998,2.0,315.7830962,10.8692456,-99999.0,'11111222,11111222,99999999' 
TABS,ioos:station:wmo:42045:1,2006-11-03T23:00:00Z,26.2168,-96.4998,2.0,323.2075129,5.944005384,-99999.0,'11133222,11111222,99999999' 
TABS,ioos:station:wmo:42045:1,2006-11-03T23:30:00Z,26.2168,-96.4998,2.0,327.7803892,11.89113956,-99999.0,'11111222,11111222,99999999' 
TABS,ioos:station:wmo:42045:1,2006-11-04T00:00:00Z,26.2168,-96.4998,2.0,260.7205825,3.597068251,-99999.0,'11133222,11111222,99999999' 
TABS,ioos:station:wmo:42045:1,2006-11-04T00:30:00Z,26.2168,-96.4998,2.0,330.9844737,10.04018426,-99999.0,'11111222,11111222,99999999' 
TABS,ioos:station:wmo:42045:1,2006-11-04T01:00:00Z,26.2168,-96.4998,2.0,313.5196125,13.9558769,-99999.0,'11111222,11111222,99999999' 
TABS,ioos:station:wmo:42045:1,2006-11-04T01:30:00Z,26.2168,-96.4998,2.0,334.1469319,18.00173603,-99999.0,'11111222,11111222,99999999' 
TABS,ioos:station:wmo:42045:1,2006-11-04T02:00:00Z,26.2168,-96.4998,2.0,311.3918553,10.22382023,-99999.0,'11111222,11111222,99999999' 
TABS,ioos:station:wmo:42045:1,2006-11-04T02:30:00Z,26.2168,-96.4998,2.0,335.758408,16.65898256,-99999.0,'11111222,11111222,99999999' 
TABS,ioos:station:wmo:42045:1,2006-11-04T03:30:00Z,26.2168,-96.4998,2.0,331.4582067,12.70395608,-99999.0,'11111222,11111222,99999999' 
TABS,ioos:station:wmo:42045:1,2006-11-04T04:00:00Z,26.2168,-96.4998,2.0,284.002206,12.10980594,-99999.0,'11111222,11111222,99999999' 
TABS,ioos:station:wmo:42045:1,2006-11-04T04:30:00Z,26.2168,-96.4998,2.0,328.8648802,14.31162115,-99999.0,'11111222,11111222,99999999' 
TABS,ioos:station:wmo:42045:1,2006-11-04T05:00:00Z,26.2168,-96.4998,2.0,309.0574318,10.58571207,-99999.0,'11111222,11111222,99999999' 
TABS,ioos:station:wmo:42045:1,2006-11-04T05:30:00Z,26.2168,-96.4998,2.0,309.5919962,14.40424937,-99999.0,'11111222,11111222,99999999' 
TABS,ioos:station:wmo:42045:1,2006-11-04T06:00:00Z,26.2168,-96.4998,2.0,291.0054757,2.538700455,-99999.0,'11133222,11111222,99999999' 
TABS,ioos:station:wmo:42045:1,2006-11-04T06:30:00Z,26.2168,-96.4998,2.0,311.4115611,8.133535517,-99999.0,'11133222,11111222,99999999' 
TABS,ioos:station:wmo:42045:1,2006-11-04T07:00:00Z,26.2168,-96.4998,2.0,309.4310029,6.848839318,-99999.0,'11133222,11111222,99999999' 
TABS,ioos:station:wmo:42045:1,2006-11-04T07:30:00Z,26.2168,-96.4998,2.0,242.0839027,3.225306187,-99999.0,'11133222,11111222,99999999' 
TABS,ioos:station:wmo:42045:1,2006-11-04T08:00:00Z,26.2168,-96.4998,2.0,316.1181377,2.899689639,-99999.0,'11133222,11111222,99999999' 
TABS,ioos:station:wmo:42045:1,2006-11-04T08:30:00Z,26.2168,-96.4998,2.0,247.3716145,5.406153901,-99999.0,'11133222,11111222,99999999' 
TABS,ioos:station:wmo:42045:1,2006-11-04T09:00:00Z,26.2168,-96.4998,2.0,249.3998893,9.208800139,-99999.0,'11133222,11111222,99999999' 
TABS,ioos:station:wmo:42045:1,2006-11-04T09:30:00Z,26.2168,-96.4998,2.0,256.6171014,5.314301459,-99999.0,'11133222,11111222,99999999' 
TABS,ioos:station:wmo:42045:1,2006-11-04T10:00:00Z,26.2168,-96.4998,2.0,240.6444875,12.03536871,-99999.0,'11111222,11111222,99999999' 
TABS,ioos:station:wmo:42045:1,2006-11-04T10:30:00Z,26.2168,-96.4998,2.0,268.5629988,6.382005954,-99999.0,'11133222,11111222,99999999' 
TABS,ioos:station:wmo:42045:1,2006-11-04T11:00:00Z,26.2168,-96.4998,2.0,205.5702671,8.5028113,-99999.0,'11133222,11111222,99999999' 
TABS,ioos:station:wmo:42045:1,2006-11-04T11:30:00Z,26.2168,-96.4998,2.0,228.0427091,9.856825047,-99999.0,'11133222,11111222,99999999' 
TABS,ioos:station:wmo:42045:1,2006-11-04T12:00:00Z,26.2168,-96.4998,2.0,237.3430906,11.37875213,-99999.0,'11111222,11111222,99999999' 
TABS,ioos:station:wmo:42045:1,2006-11-04T12:30:00Z,26.2168,-96.4998,2.0,219.54008,14.93822279,-99999.0,'11111222,11111222,99999999' 
TABS,ioos:station:wmo:42045:1,2006-11-04T13:00:00Z,26.2168,-96.4998,2.0,205.610461,16.3792338,-99999.0,'11111222,11111222,99999999' 
TABS,ioos:station:wmo:42045:1,2006-11-04T13:30:00Z,26.2168,-96.4998,2.0,218.4169481,19.18299507,-99999.0,'11111222,11111222,99999999' 
TABS,ioos:station:wmo:42045:1,2006-11-04T14:00:00Z,26.2168,-96.4998,2.0,216.6301685,12.92211283,-99999.0,'11111222,11111222,99999999' 
TABS,ioos:station:wmo:42045:1,2006-11-04T14:30:00Z,26.2168,-96.4998,2.0,216.6358788,17.16014277,-99999.0,'11111222,11111222,99999999' 
TABS,ioos:station:wmo:42045:1,2006-11-04T15:00:00Z,26.2168,-96.4998,2.0,219.0672713,11.63055459,-99999.0,'11111222,11111222,99999999' 
TABS,ioos:station:wmo:42045:1,2006-11-04T16:00:00Z,26.2168,-96.4998,2.0,206.3616034,8.82805188,-99999.0,'11133222,11111222,99999999' 
TABS,ioos:station:wmo:42045:1,2006-11-04T17:00:00Z,26.2168,-96.4998,2.0,217.2772861,11.52429174,-99999.0,'11111222,11111222,99999999' 
TABS,ioos:station:wmo:42045:1,2006-11-04T17:30:00Z,26.2168,-96.4998,2.0,201.6923393,6.844742508,-99999.0,'11133222,11111222,99999999' 
TABS,ioos:station:wmo:42045:1,2006-11-04T18:30:00Z,26.2168,-96.4998,2.0,180.4999328,10.31039282,-99999.0,'11111222,11111222,99999999' 
TABS,ioos:station:wmo:42045:1,2006-11-04T19:30:00Z,26.2168,-96.4998,2.0,155.9495473,6.625141508,-99999.0,'11133222,11111222,99999999' 
TABS,ioos:station:wmo:42045:1,2006-11-04T20:00:00Z,26.2168,-96.4998,2.0,240.4679878,6.999328539,-99999.0,'11133222,11111222,99999999' 
TABS,ioos:station:wmo:42045:1,2006-11-04T20:30:00Z,26.2168,-96.4998,2.0,170.8257754,14.0497153,-99999.0,'11111222,11111222,99999999' 
TABS,ioos:station:wmo:42045:1,2006-11-04T21:00:00Z,26.2168,-96.4998,2.0,213.1764713,10.52585863,-99999.0,'11111222,11111222,99999999' 
TABS,ioos:station:wmo:42045:1,2006-11-04T21:30:00Z,26.2168,-96.4998,2.0,194.809333,10.60219789,-99999.0,'11111222,11111222,99999999' 
TABS,ioos:station:wmo:42045:1,2006-11-04T22:00:00Z,26.2168,-96.4998,2.0,214.2383676,16.51140818,-99999.0,'11111222,11111222,99999999' 
TABS,ioos:station:wmo:42045:1,2006-11-04T22:30:00Z,26.2168,-96.4998,2.0,229.7110013,10.93345782,-99999.0,'11111222,11111222,99999999' 
TABS,ioos:station:wmo:42045:1,2006-11-04T23:00:00Z,26.2168,-96.4998,2.0,226.5414309,20.4993756,-99999.0,'11111222,11111222,99999999' 
TABS,ioos:station:wmo:42045:1,2006-11-05T00:00:00Z,26.2168,-96.4998,2.0,202.9945294,21.04198897,-99999.0,'11111222,11111222,99999999' 
TABS,ioos:station:wmo:42045:1,2006-11-05T00:30:00Z,26.2168,-96.4998,2.0,208.78695,18.1078795,-99999.0,'11111222,11111222,99999999' 
TABS,ioos:station:wmo:42045:1,2006-11-05T01:00:00Z,26.2168,-96.4998,2.0,222.9957557,20.22147868,-99999.0,'11111222,11111222,99999999' 
TABS,ioos:station:wmo:42045:1,2006-11-05T02:00:00Z,26.2168,-96.4998,2.0,213.9398254,18.43008953,-99999.0,'11111222,11111222,99999999' 